Location: Grand Mazuras
(45.9128°N, 1.7636°E)
Time: 03:09:54
(UTC+00:00)

Nadezhda 2 Rocket - Pass Details

Date: 18 April 2021
Orbit: 947 x 1012 km, 83.0° (Epoch: 10 May)

Event Time Altitude Azimuth Distance (km) Brightness Sun altitude
Rises 21:56:24 0° 351° (N) 3,708 8.6 -27.3°
Reaches altitude 10° 21:58:57 10° 351° (N) 2,746 7.7 -27.5°
Maximum altitude 22:05:15 88° 265° (W) 977 4.4 -28.1°
Enters shadow 22:05:45 77° 182° (S) 996 4.3 -28.1°
